Regional Weather Roundup
Issued by NWS Charleston, SC

Current Version | Previous Version | Graphics & Text | Print | Product List | Glossary On
Versions: 1 2 3 4 5 6 7 8 9 10 11 12 13 14 15 16 17 18 19 20 21 22 23 24 25 26 27 28 29 30 31 32 33 34 35 36 37 38 39 40 41 42 43 44 45 46 47 48 49 50
000 ASUS42 KCHS 010627 RWRCHS REGIONAL WEATHER ROUNDUP NATIONAL WEATHER SERVICE CHARLESTON SC 200 AM EDT SAT AUG 01 2015 NOTE: "FAIR" INDICATES FEW OR NO CLOUDS BELOW 12,000 FEET WITH NO SIGNIFICANT WEATHER AND/OR OBSTRUCTIONS TO VISIBILITY. NOT ALL STATIONS ARE QUALITY CONTROLLED BY THE NATIONAL WEATHER SERVICE. USE DATA WITH CAUTION...ESPECIALLY DEWPOINT OBSERVATIONS. SCZ027-030-031-034>040-042>050-010700- ...SOUTHEAST SOUTH CAROLINA... CITY SKY/WX TMP DP RH WIND PRES REMARKS N CHARLESTON PTCLDY 78 74 87 N5 29.91F 6HR MIN TEMP: 78; 6HR MAX TEMP: 81; 6HR PCP: TRACE; WATERFRONT PRK N/A 81 78 91 VRB2 29.89F MOUNT PLEASANT FAIR 79 77 94 CALM 29.91S JOHNS ISLAND MOCLDY 81 79 94 CALM 29.91S PINOPOLIS NOT AVBL MONCKS CORNER FAIR 77 73 88 CALM 29.92F FOG SUMMERVILLE FAIR 73 73 100 CALM 29.93S BEAUFORT MCAS CLOUDY 79 77 94 CALM 29.91F 6HR MIN TEMP: 77; 6HR MAX TEMP: 80; BEAUFORT ARPT FAIR 79 77 94 CALM 29.91F HILTON HEAD IS PTCLDY 77 75 94 CALM 29.93F WALTERBORO CLEAR 75 73 94 N3 29.93F FOG ALLENDALE MOCLDY 75 73 94 CALM 29.92F ...SOUTHERN MIDLANDS AND PEE DEE... CITY SKY/WX TMP DP RH WIND PRES REMARKS GEORGETOWN NOT AVBL KINGSTREE NOT AVBL ORANGEBURG CLOUDY 76 73 91 SE5 29.94F 6HR MIN TEMP: 76; 6HR MAX TEMP: 80; 6HR PCP: 0.01; BARNWELL FAIR 75 73 94 CALM 29.94F AIKEN FAIR 73 68 83 SW3 29.98F MANNING HVY RAIN 73 72 94 CALM 29.92F COLUMBIA MOCLDY 79 72 79 SW3 29.93F 6HR MIN TEMP: 79; 6HR MAX TEMP: 93; SUMTER MOCLDY 78 71 80 SW7 29.91F 6HR MIN TEMP: 77; 6HR MAX TEMP: 86; FLORENCE CLEAR 76 72 87 CALM 29.93F 6HR MIN TEMP: 75; 6HR MAX TEMP: 88; MYRTLE BEACH PTCLDY 77 72 83 CALM 29.94F N MYRTLE BEACH PTCLDY 76 74 93 N3 29.92F 6HR MIN TEMP: 76; 6HR MAX TEMP: 83; 6HR PCP: 0.01; $$ GAZ063-065-086>088-099>101-113>116-118-119-134>141-150-010700- ...SOUTHEAST GEORGIA... CITY SKY/WX TMP DP RH WIND PRES REMARKS SAVANNAH ARPT CLOUDY 75 73 94 CALM 29.93F FOG 6HR MIN TEMP: 76; 6HR MAX TEMP: 78; HUNTER AAF PTCLDY 76 76 100 W2 29.90F 6HR MIN TEMP: 76; 6HR MAX TEMP: 80; FORT STEWART NOT AVBL STATESBORO PTCLDY 73 32 21 CALM 29.92F HAZE SYLVANIA CLEAR 74 74 100 CALM 29.94S CLAXTON NOT AVBL ...CSRA...CENTRAL AND FAR SOUTHEAST GEORGIA... CITY SKY/WX TMP DP RH WIND PRES REMARKS THOMSON CLEAR 76 74 96 S3 29.98F AUGUSTA-BUSH CLEAR 74 73 97 CALM 29.93F 6HR MIN TEMP: 74; 6HR MAX TEMP: 85; AUGUSTA-DANIEL CLEAR 78 73 84 CALM 29.95F SWAINSBORO FAIR N/A N/A N/A N3 29.93F VIDALIA PTCLDY 73 72 94 CALM 29.92F EASTMAN FOG 74 74 100 CALM 29.94F VSB 1/4 HAZLEHURST FAIR 76 76 100 CALM 29.90F ALMA MOCLDY 74 73 97 CALM 29.92F 6HR MIN TEMP: 74; 6HR MAX TEMP: 79; WAYCROSS MOCLDY 77 77 99 CALM 29.89F JESUP FOG 77 77 100 CALM 29.93F VSB 1 BAXLEY FAIR 75 73 94 SE3 29.92F BRUNSWICK PTCLDY 73 72 94 CALM 29.94S SAINT SIMONS MOCLDY 77 75 93 S5 29.92F 6HR MIN TEMP: 73; 6HR MAX TEMP: 77; 6HR PCP: 1.42; $$ SCZ027-028-034-036>038-045-046-048>050-GAZ119-141-010700- ...LAKE AND SUPPLEMENTAL COASTAL OBSERVATIONS... STATION/POSITION TIME TEMP WIND PRES WAVE SWELL AIR SEA DIR/SP/G HT/PER HT/PER/DIR (UTC) (F) (DEG/KT/KT) (MB) (FT/S) (FT/S/D) UPR LAKE MARION NOT AVBL WINYAH BAY 0545 78 290/ 3 1012.0F LAKE MURRAY 0500 83 220/ 3/ 5 1013.2S ACE BASIN NERRS NOT AVBL FORT PULASKI 0600 79 86 250/ 4/ 5 1013.6F SAPELO ISLAND 0600 79 250/ 4 1014.0S $$ ANZ835-935-AMZ111-154-330-350-352-354-370-450-454-472-010700- ...C-MAN AND BUOY OBSERVATIONS... STATION/POSITION TIME TEMP WIND PRES WAVE SWELL AIR SEA DIR/SP/G HT/PER HT/PER/DIR (UTC) (F) (DEG/KT/KT) (MB) (FT/S) (FT/S/D) BUOY 41004 0550 83 84 220/ 12/ 16 1013.0F 5/ 8 3/ 8 BUOY 41008 0550 82 83 210/ 12/ 12 1013.6F 3/ 5 2/150/ 5 FOLLY BEACH CMAN 0600 82 220/ 8/ 10 1013.0F CAPERS NEARSHORE 0508 83 250/ 14/ 17 1013.5F FRIPP NEARSHORE 0500 83 230/ 8/ 10 1013.2F STATION/POSITION TIME TEMP WIND PRES WAVE SWELL AIR SEA DIR/SP/G HT/PER HT/PER/DIR (UTC) (F) (DEG/KT/KT) (MB) (FT/S) (FT/S/D) 5E ST. MARYS GA 0521 83 N/A 3/ 5 FRYING PAN BUOY 0550 84 84 230/ 14/ 16 1013.6F 5/ 8 3/150/ 8 BUOY 41025 0550 82 85 60/ 4/ 6 1013.5F 4/ 8 3/160/ 8 CAPE LOOKOUT NC 0600 78 250/ 5/ 7 1012.3F BUOY 41002 0550 82 81 230/ 16/ 19 1016.1F 6/ 7 2/110/12 BUOY 41010 0520 82 84 210/ 16/ 19 1017.1R ST AUGUSTINE FL 0600 77 82 210/ 5/ 6 1014.8F $$

USA.gov is the U.S. government's official web portal to all federal, state and local government web resources and services.